Ketchikan, AK

10:44 AM AKDT on October 19, 2018 (GMT -0800)
Ketchikan International

Weather History for PAKT - April, 2018

Change the Weather History Date:

Wednesday, April 4, 2018

  Actual Average Record
Temperature  
Mean Temperature 37 °F 40 °F  
Max Temperature 46 °F 47 °F 60 °F (1958)
Min Temperature 28 °F 34 °F 19 °F (2007)
Degree Days  
Heating Degree Days 28 24  
Month to date heating degree days 111 99  
Moisture  
Dew Point 27 °F    
Average Humidity 76    
Maximum Humidity 96    
Minimum Humidity 37    
Precipitation  
Precipitation 0.00 in 0.34 in 2.90 in (1953)
Month to date precipitation 0.64 1.37  
Year to date precipitation 27.59 38.19  
Sea Level Pressure  
Sea Level Pressure 30.06 in    
Wind  
Wind Speed 3 mph (SE)    
Max Wind Speed 15 mph    
Max Gust Speed 21 mph    
Visibility 10 miles    
Events      
T = Trace of Precipitation, MM = Missing Value Source: NWS Daily Summary

Daily Weather History Graph

Daily Weather History Graph

Search for Another Location

Airport or City:

Astronomy

Apr. 04, 2018 Rise Set
Actual Time 6:09 AM AKDT 7:30 PM AKDT
Civil Twilight 5:32 AM AKDT 8:08 PM AKDT
Nautical Twilight 4:45 AM AKDT 8:55 PM AKDT
Astronomical Twilight 3:54 AM AKDT 9:47 PM AKDT
Moon No Moon Rise 8:27 AM AKDT (4/4)
Length of Visible Light 14h 36m
Length of Day
13h 20m
Waning Gibbous, 81% of the Moon is Illuminated
Apr 4
Waning Gibbous
Apr 7
Last Quarter
Apr 15
New
Apr 22
First Quarter
Apr 29
Full

Hourly Weather History & Observations

Time (AKDT) Temp. Windchill Dew Point Humidity Pressure Visibility Wind Dir Wind Speed Gust Speed Precip Events Conditions
12:53 AM 33.1 °F - 32.0 °F 96% 30.04 in 10.0 mi Calm Calm - N/A   Overcast
1:26 AM 32.0 °F - 30.9 °F 96% 30.05 in 10.0 mi Calm Calm - N/A   Mostly Cloudy
1:53 AM 32.0 °F - 30.9 °F 96% 30.06 in 10.0 mi Calm Calm - N/A   Mostly Cloudy
2:53 AM 33.1 °F - 30.9 °F 92% 30.08 in 10.0 mi Calm Calm - N/A   Overcast
3:51 AM 30.2 °F 26.7 °F 28.4 °F 93% 30.08 in 10.0 mi SSE 3.5 mph - N/A   Scattered Clouds
3:53 AM 30.9 °F 27.5 °F 28.9 °F 92% 30.09 in 10.0 mi SSE 3.5 mph - N/A   Scattered Clouds
4:09 AM 32.0 °F 28.7 °F 30.0 °F 92% 30.08 in 10.0 mi SSE 3.5 mph - N/A   Mostly Cloudy
4:43 AM 33.1 °F - 30.9 °F 92% 30.08 in 10.0 mi Calm Calm - N/A   Partly Cloudy
4:53 AM 32.0 °F - 30.0 °F 92% 30.09 in 10.0 mi Calm Calm - N/A   Partly Cloudy
5:51 AM 28.4 °F - 26.6 °F 93% 30.09 in 10.0 mi Calm Calm - N/A   Mostly Cloudy
5:53 AM 28.9 °F - 27.0 °F 92% 30.10 in 10.0 mi Calm Calm - N/A   Mostly Cloudy
6:09 AM 30.0 °F 26.5 °F 28.0 °F 92% 30.09 in 10.0 mi South 3.5 mph - N/A   Overcast
6:51 AM 28.4 °F - 26.6 °F 93% 30.10 in 10.0 mi Calm Calm - N/A   Clear
6:53 AM 28.9 °F - 27.0 °F 92% 30.10 in 10.0 mi Calm Calm - N/A   Clear
7:53 AM 30.2 °F - 28.4 °F 93% 30.11 in 10.0 mi Calm Calm - N/A   Scattered Clouds
8:53 AM 35.6 °F - 30.2 °F 81% 30.11 in 10.0 mi Calm Calm - N/A   Partly Cloudy
9:53 AM 39.2 °F - 30.2 °F 70% 30.11 in 10.0 mi Calm Calm - N/A   Clear
10:53 AM 41.0 °F 38.0 °F 24.1 °F 51% 30.11 in 10.0 mi SE 4.6 mph - N/A   Partly Cloudy
11:53 AM 42.1 °F 37.1 °F 24.1 °F 49% 30.10 in 10.0 mi SE 8.1 mph - N/A   Partly Cloudy
12:53 PM 43.0 °F 41.3 °F 23.0 °F 45% 30.10 in 10.0 mi Variable 3.5 mph - N/A   Partly Cloudy
1:53 PM 44.1 °F 39.5 °F 25.0 °F 47% 30.09 in 10.0 mi ESE 8.1 mph - N/A   Partly Cloudy
3:53 PM 45.0 °F 39.3 °F 25.0 °F 46% 30.06 in 10.0 mi ESE 11.5 mph - N/A   Clear
4:53 PM 46.0 °F 41.0 °F 24.1 °F 42% 30.04 in 10.0 mi East 10.4 mph - N/A   Clear
5:53 PM 44.6 °F 41.4 °F 19.4 °F 37% 30.02 in 10.0 mi Variable 5.8 mph - N/A   Clear
6:53 PM 39.2 °F - 24.8 °F 56% 30.01 in 10.0 mi Calm Calm - N/A   Clear
7:53 PM 36.0 °F - 24.1 °F 62% 30.00 in 10.0 mi Calm Calm - N/A   Clear
8:53 PM 33.1 °F - 25.0 °F 72% 30.00 in 10.0 mi Calm Calm - N/A   Clear
9:53 PM 30.9 °F - 24.1 °F 76% 29.99 in 10.0 mi Calm Calm - N/A   Clear
10:53 PM 32.0 °F - 25.0 °F 75% 29.96 in 10.0 mi Calm Calm - N/A   Clear
11:53 PM 32.0 °F - 23.0 °F 69% 29.94 in 10.0 mi Calm Calm - N/A   Clear